GFSFLT2_500_rhum_036.txt.gz
RH
95 84 82 95 89 98 98 97 96 88 33 20 18 14 20 29 14 12 18 10 16 26 36 44 48 51 45 42 41 39 36 35
96 98 91 99 96 97 95 95 94 92 78 61 23 54 37 30 28 9 9 17 24 43 56 62 60 56 52 48 44 38 38 38
96 96 96 96 96 93 95 96 91 79 69 66 69 35 17 9 16 34 50 56 54 57 65 59 54 55 55 61 56 42 38 38
96 97 97 96 93 88 67 66 48 26 16 12 10 13 22 30 39 60 52 47 43 46 50 60 65 69 55 41 45 38 40 33
96 95 92 64 28 16 12 9 8 11 14 17 47 62 68 55 48 57 53 50 42 46 50 55 58 67 40 34 36 38 34 25
93 91 68 46 24 22 28 16 16 29 64 70 65 61 49 44 31 47 20 28 17 26 24 34 45 22 14 14 18 21 21 19
89 70 53 34 23 30 40 55 57 62 64 67 55 56 61 23 14 13 14 14 15 16 15 14 15 16 17 17 18 20 21 21
48 59 39 35 34 38 46 54 55 62 60 62 67 33 16 15 14 16 19 18 19 19 18 20 22 23 22 23 23 21 21 22
21 22 28 34 40 40 39 48 62 43 72 73 32 14 15 17 21 21 21 21 21 21 24 25 29 29 29 30 30 28 24 24
17 21 22 34 43 42 42 47 46 45 44 23 15 16 19 19 21 24 26 26 26 27 30 36 39 38 36 37 37 31 27 28
29 35 20 20 27 24 45 50 61 24 14 15 16 20 22 22 23 25 28 30 32 37 41 41 44 45 42 44 41 34 32 36
13 16 23 21 43 22 25 49 18 16 17 20 20 20 20 22 26 29 30 31 36 39 46 49 53 49 47 46 44 40 38 44
13 18 32 28 18 31 44 18 19 20 20 18 18 19 21 26 25 28 30 28 30 34 41 57 68 80 64 50 50 46 48 53
43 53 73 20 20 23 22 20 20 21 19 18 19 20 23 25 28 27 28 27 27 28 31 34 48 88 60 50 53 56 59 56
44 63 48 19 20 22 21 20 23 21 20 20 21 21 22 24 25 26 26 27 29 30 33 43 72 100 58 56 55 60 53 50
53 54 44 21 22 24 21 23 21 19 20 20 21 22 23 25 26 28 30 30 31 39 72 79 100 62 54 56 62 54 41 33
34 38 37 22 24 25 22 20 18 20 21 21 20 20 24 28 30 30 29 30 32 37 84 100 100 80 59 61 59 56 55 54
58 45 32 23 24 20 18 20 21 21 20 19 20 25 29 30 30 30 34 36 42 48 51 75 83 89 60 58 54 54 62 59
42 31 20 18 18 20 21 21 20 19 19 22 25 29 31 32 39 44 46 53 62 60 59 56 57 58 60 63 64 68 64 71
28 26 18 18 20 20 19 18 17 17 19 22 27 32 41 46 48 51 67 62 86 85 62 59 66 57 67 79 89 88 84 78

GFSFLT2_500_rhum_039.txt.gz
RH
91 97 76 57 96 96 97 97 98 97 97 89 74 49 50 53 45 15 28 31 27 19 12 32 49 47 55 53 48 42 43 42
96 94 98 78 96 96 97 98 97 96 76 30 24 28 29 24 29 36 40 40 15 34 53 42 41 42 45 44 39 43 29 25
97 96 95 96 97 96 95 98 97 91 84 57 50 33 46 57 48 41 27 36 50 47 47 42 47 49 43 50 47 47 17 10
97 97 96 96 96 97 98 96 92 84 71 55 52 52 29 24 37 60 64 63 57 50 53 39 52 50 55 48 47 37 10 10
97 96 96 96 96 96 93 90 73 39 22 18 24 38 62 76 72 52 50 62 40 19 14 18 18 13 14 18 14 13 14 14
94 97 95 93 73 39 35 21 14 14 31 74 65 68 65 59 53 34 15 13 12 12 12 15 17 17 17 17 17 17 17 16
87 93 74 77 75 46 28 37 61 70 75 73 78 57 55 50 27 14 15 16 17 17 18 19 18 17 17 15 12 12 14 15
80 85 86 78 75 74 64 71 71 79 66 64 80 81 29 14 14 18 20 17 18 19 18 18 17 16 14 12 11 13 17 21
40 36 45 52 43 41 43 51 54 45 34 60 77 40 14 15 17 16 16 17 19 19 20 22 21 21 19 18 19 19 21 23
32 32 30 38 36 32 26 37 47 45 38 33 18 15 15 16 17 19 18 18 20 19 19 20 21 22 25 25 25 27 34 32
29 35 23 17 18 25 25 44 49 59 19 15 16 16 17 19 19 18 18 18 20 20 21 23 23 24 25 32 34 38 57 40
13 13 14 16 27 30 21 50 46 16 17 17 18 18 18 17 18 18 19 20 21 22 24 25 27 28 31 46 50 69 83 48
23 30 32 41 17 36 47 20 18 19 19 19 17 17 18 18 20 20 21 21 23 25 28 28 30 34 45 66 65 94 64 53
39 55 60 20 22 22 20 19 19 17 17 17 16 18 20 21 21 20 19 24 28 29 31 33 34 35 50 90 96 100 95 79
42 53 64 32 23 21 21 20 20 18 16 17 19 21 22 21 20 23 28 31 33 34 35 37 44 54 56 61 96 93 85 87
44 57 73 60 36 26 23 24 21 17 18 20 21 21 20 21 26 31 33 35 39 44 46 52 67 73 72 60 61 62 63 59
54 70 92 58 41 26 21 33 17 18 20 20 20 19 21 26 33 37 40 46 48 51 70 62 67 66 94 90 62 60 63 58
93 86 74 38 45 19 18 28 23 36 30 22 22 23 26 30 35 41 50 50 59 65 80 61 54 66 89 100 93 68 61 65
90 50 53 41 33 17 23 31 35 55 41 38 31 40 44 44 51 54 56 55 80 55 56 58 61 65 70 72 68 76 82 78
90 42 30 31 22 21 21 24 22 50 72 68 66 47 54 70 47 52 62 60 54 62 56 54 84 61 55 63 70 94 100 100

GFSFLT2_500_rhum_042.txt.gz
RH
96 96 95 96 86 95 87 86 87 85 96 95 96 97 81 56 21 26 36 41 20 35 44 39 34 39 33 32 46 51 48 46
95 90 96 87 96 94 93 94 96 97 98 98 93 62 57 48 54 40 33 45 38 38 42 45 49 41 37 44 44 46 44 48
96 96 95 97 98 97 96 96 98 99 98 86 48 27 49 46 47 47 40 42 44 50 45 50 41 28 28 25 14 12 12 13
96 97 97 97 98 95 94 96 99 95 62 44 74 87 73 71 51 26 53 73 76 72 61 22 9 10 11 11 12 12 12 14
93 95 97 97 96 97 96 97 98 91 86 75 57 47 35 29 45 87 81 50 22 49 19 13 14 14 14 15 15 15 16 16
86 97 97 97 96 96 90 91 91 70 44 41 58 83 90 94 77 72 29 14 13 15 17 16 16 16 16 16 15 14 12 11
95 98 96 95 93 87 83 70 54 46 46 66 93 75 64 58 41 25 15 15 17 17 16 15 15 16 17 16 16 15 14 12
80 86 80 72 51 53 52 73 82 89 88 78 73 81 77 34 14 15 16 14 16 14 13 15 16 17 17 16 14 16 19 17
83 86 81 79 75 78 77 80 80 72 58 39 60 64 36 15 17 17 16 15 14 15 17 18 17 16 16 15 14 16 20 19
44 47 54 55 55 55 45 38 36 46 53 50 38 22 15 17 18 18 16 16 17 18 17 17 15 15 16 15 16 17 20 24
44 30 26 28 26 23 20 20 47 56 51 20 15 17 17 18 17 16 16 17 17 17 14 15 16 19 22 22 23 25 27 29
20 16 18 17 17 23 26 18 49 36 14 17 17 17 18 16 16 16 16 17 17 16 16 18 24 27 27 27 28 29 32 36
22 31 29 25 26 15 37 36 18 16 16 18 17 17 15 16 16 17 17 16 16 17 20 24 28 28 30 31 36 39 43 44
52 58 65 59 20 36 28 19 18 18 19 18 15 15 16 17 17 16 17 18 22 26 29 35 40 36 41 48 51 59 77 85
32 52 68 57 22 22 19 18 18 18 19 16 15 15 17 17 16 18 20 26 31 36 43 54 46 45 56 97 67 56 56 69
36 44 57 70 43 24 22 21 19 20 20 16 18 26 27 25 26 30 44 42 41 48 54 49 54 75 64 60 60 56 52 49
67 56 59 85 60 40 33 22 30 54 71 53 43 58 64 46 56 66 68 60 61 59 86 63 69 73 61 58 58 55 57 50
78 97 88 94 85 40 49 36 47 51 73 74 78 82 60 59 63 75 82 83 78 94 89 98 82 57 57 60 60 60 65 70
70 100 84 61 52 35 45 36 34 37 73 80 88 88 85 77 76 94 94 99 90 100 92 66 58 63 74 71 61 60 69 78
79 96 62 38 27 28 34 34 22 41 85 89 99 100 96 96 100 100 98 100 96 82 85 94 92 76 68 60 69 73 82 90

GFSFLT2_500_rhum_045.txt.gz
RH
90 90 90 97 97 98 96 91 76 57 69 87 96 96 96 94 75 51 21 30 31 36 27 35 31 40 45 46 44 43 37 41
95 97 96 97 96 97 96 96 94 90 93 98 93 97 90 72 31 24 37 40 30 42 37 32 43 46 45 21 17 20 10 11
70 64 82 98 96 97 94 94 96 96 97 97 98 89 69 37 49 48 41 46 49 33 44 54 57 22 10 9 10 11 12 13
64 96 94 96 96 96 96 97 97 94 97 97 68 44 42 71 51 52 45 30 47 58 32 58 28 13 12 13 14 14 14 14
88 79 86 96 96 96 97 95 94 96 86 44 48 61 73 69 64 54 46 59 53 24 14 15 13 12 12 12 14 14 15 15
81 90 97 97 97 97 97 96 96 91 82 72 58 46 54 76 64 75 84 44 14 15 14 12 12 12 14 14 15 15 14 13
74 85 91 96 97 97 95 95 93 86 71 73 82 92 90 81 78 65 43 15 14 14 12 12 13 15 15 15 14 13 10 10
95 99 99 96 96 95 90 71 78 83 82 80 72 96 80 80 46 14 14 15 15 13 13 15 16 16 15 12 12 13 14 14
77 92 72 57 53 52 51 60 60 87 98 93 81 75 74 74 15 15 16 13 12 14 14 15 16 15 12 13 16 17 17 18
64 72 73 74 75 78 82 88 92 83 75 66 63 48 45 15 15 14 13 14 13 14 15 16 15 14 15 15 15 17 19 21
51 52 54 55 53 54 51 44 42 48 67 64 34 14 14 15 15 14 13 14 15 16 16 16 16 17 15 17 20 22 24 26
37 27 25 24 21 22 24 25 32 56 58 28 14 15 15 16 16 15 14 15 16 15 15 17 18 17 19 22 24 27 30 30
17 17 18 20 21 22 18 21 25 56 19 15 16 17 16 15 15 14 15 16 17 18 21 21 17 21 26 28 32 33 36 40
34 32 44 58 47 24 42 42 30 18 18 20 18 16 15 15 16 15 19 25 27 31 36 34 30 32 35 38 37 39 39 46
39 48 62 73 62 24 35 23 21 20 19 18 19 16 17 20 38 32 42 37 44 43 46 51 52 46 46 59 39 48 46 47
32 43 57 65 82 39 24 22 22 22 21 43 44 50 57 46 34 41 52 52 58 72 70 74 68 76 80 83 62 67 60 54
48 48 54 54 75 70 29 26 25 23 47 64 62 72 63 57 48 54 61 66 77 79 81 82 72 72 94 92 83 80 94 86
44 77 56 55 84 89 58 43 45 41 37 34 44 80 79 79 73 80 71 92 85 100 96 93 100 97 99 100 84 60 68 72
74 85 68 78 72 71 62 39 43 41 33 47 71 94 94 92 95 94 92 83 89 98 100 99 100 98 98 90 69 75 79 73
68 90 72 99 96 87 59 38 28 28 35 64 82 98 95 97 89 88 94 95 100 100 100 97 90 97 99 87 80 81 80 76